Date String (YYYY-MM-DD hh:mm:ss) UTC,Instrument flags,Ambient pressure (hPa),Sample flow (lpm),Bypass flow (lpm),Sample temperature (°C),Ambient temperature (°C),ASC tube jacket temperature (°C),LED temperature (°C),Box temperature (°C),Sample RH (%),Span deviation,Mass concentration (μg/m³),Mass concentration (μg/m³),Mass concentration (μg/m³)
DateTimeUTC,F1_M11,P_M11,Q1_M11,Q2_M11,T1_M11,T2_M11,T3_M11,T4_M11,T5_M11,U1_M11,ZSPAN_M11,X0_M11,X2_M11,X1_M11
2022-02-19 22:00:00,,0821.2,5.00,0.00,26.1,25.0,00.0,35.1,27.9,07.2,0000.0,0004.84,0000.50,0000.35
2022-02-19 22:01:00,,0821.2,5.01,0.00,26.1,25.0,00.0,35.1,27.9,07.5,0000.0,0005.31,0000.51,0000.35
2022-02-19 22:02:00,,0821.3,4.99,0.00,26.1,24.9,00.0,35.1,27.9,07.6,0000.0,0005.54,0000.52,0000.35
2022-02-19 22:03:00,,0821.1,5.02,0.00,26.0,24.9,00.0,35.1,27.8,07.4,0000.0,0005.67,0000.51,0000.35
2022-02-19 22:04:00,,0821.1,4.98,0.00,26.0,24.8,00.0,35.0,27.8,07.3,0000.0,0005.66,0000.50,0000.35
2022-02-19 22:05:00,,0821.0,5.01,0.00,26.0,24.8,00.0,35.0,27.7,07.5,0000.0,0005.70,0000.50,0000.34
2022-02-19 22:06:00,,0820.9,5.01,0.00,26.0,24.8,00.0,35.0,27.7,07.3,0000.0,0005.75,0000.52,0000.35
2022-02-19 22:07:00,,0820.9,5.00,0.00,25.9,24.8,00.0,35.0,27.7,07.5,0000.0,0004.88,0000.54,0000.35
2022-02-19 22:08:00,,0820.9,5.00,0.00,25.9,24.7,00.0,35.0,27.6,07.4,0000.0,0004.06,0000.56,0000.35
2022-02-19 22:09:00,,0820.8,4.99,0.00,25.9,24.7,00.0,34.9,27.6,07.5,0000.0,0003.61,0000.56,0000.36
2022-02-19 22:10:00,,0821.0,5.01,0.00,25.9,24.6,00.0,34.9,27.6,07.6,0000.0,0002.79,0000.57,0000.36
2022-02-19 22:11:00,,0821.0,5.00,0.00,25.8,24.6,00.0,34.9,27.6,07.6,0000.0,0003.07,0000.59,0000.36
2022-02-19 22:12:00,,0820.9,4.99,0.00,25.8,24.6,00.0,34.9,27.6,07.2,0000.0,0002.75,0000.63,0000.37
2022-02-19 22:13:00,,0820.9,4.99,0.00,25.8,24.6,00.0,34.9,27.5,07.2,0000.0,0002.71,0000.68,0000.37
2022-02-19 22:14:00,,0821.0,5.01,0.00,25.8,24.6,00.0,34.8,27.5,07.4,0000.0,0002.53,0000.73,0000.37
2022-02-19 22:15:00,,0820.9,4.98,0.00,25.7,24.5,00.0,34.8,27.5,07.4,0000.0,0002.48,0000.78,0000.39
2022-02-19 22:16:00,,0820.9,5.01,0.00,25.7,24.5,00.0,34.8,27.5,07.0,0000.0,0002.48,0000.82,0000.40
2022-02-19 22:17:00,,0821.0,5.01,0.00,25.7,24.4,00.0,34.8,27.4,07.1,0000.0,0002.46,0000.83,0000.39
2022-02-19 22:18:00,,0820.9,5.00,0.00,25.7,24.4,00.0,34.7,27.4,07.2,0000.0,0002.48,0000.83,0000.39
2022-02-19 22:19:00,,0821.0,4.99,0.00,25.7,24.4,00.0,34.7,27.4,07.2,0000.0,0003.47,0000.81,0000.39
2022-02-19 22:20:00,,0821.0,5.01,0.00,25.6,24.4,00.0,34.7,27.4,07.3,0000.0,0003.77,0000.80,0000.39
2022-02-19 22:21:00,,0821.0,4.99,0.00,25.6,24.4,00.0,34.7,27.3,07.1,0000.0,0003.94,0000.84,0000.40
2022-02-19 22:22:00,,0821.1,5.02,0.00,25.6,24.3,00.0,34.7,27.3,06.9,0000.0,0003.34,0000.84,0000.40
2022-02-19 22:23:00,,0821.1,4.99,0.00,25.6,24.3,00.0,34.7,27.3,07.4,0000.0,0003.23,0000.80,0000.40
2022-02-19 22:24:00,,0821.2,5.01,0.00,25.5,24.3,00.0,34.6,27.2,07.4,0000.0,0003.10,0000.76,0000.40
2022-02-19 22:25:00,,0821.1,5.01,0.00,25.5,24.3,00.0,34.6,27.2,07.2,0000.0,0002.96,0000.71,0000.40
2022-02-19 22:26:00,,0821.1,4.99,0.00,25.5,24.3,00.0,34.6,27.2,07.1,0000.0,0002.89,0000.66,0000.39
2022-02-19 22:27:00,,0821.0,4.98,0.00,25.5,24.3,00.0,34.6,27.2,07.1,0000.0,0002.93,0000.61,0000.39
2022-02-19 22:28:00,,0821.0,5.01,0.00,25.4,24.3,00.0,34.6,27.2,07.2,0000.0,0002.87,0000.58,0000.38
2022-02-19 22:29:00,,0821.0,4.98,0.00,25.4,24.3,00.0,34.5,27.2,07.1,0000.0,0003.59,0000.57,0000.38
2022-02-19 22:30:00,,0821.0,5.00,0.00,25.4,24.3,00.0,34.5,27.2,07.0,0000.0,0002.66,0000.57,0000.38
2022-02-19 22:31:00,,0820.9,4.99,0.00,25.4,24.3,00.0,34.5,27.2,07.1,0000.0,0002.45,0000.59,0000.38
2022-02-19 22:32:00,,0821.0,4.99,0.00,25.4,24.2,00.0,34.5,27.1,07.0,0000.0,0002.40,0000.57,0000.37
2022-02-19 22:33:00,,0821.0,5.01,0.00,25.4,24.2,00.0,34.5,27.1,07.1,0000.0,0002.26,0000.57,0000.37
2022-02-19 22:34:00,,0821.0,4.99,0.00,25.3,24.2,00.0,34.4,27.1,07.2,0000.0,0002.20,0000.56,0000.37
2022-02-19 22:35:00,,0821.1,4.98,0.00,25.3,24.2,00.0,34.4,27.0,06.8,0000.0,0002.41,0000.55,0000.37
2022-02-19 22:36:00,,0821.1,5.01,0.00,25.3,24.2,00.0,34.4,27.0,07.1,0000.0,0002.63,0000.56,0000.37
2022-02-19 22:37:00,,0821.1,4.99,0.00,25.3,24.2,00.0,34.4,27.0,07.3,0000.0,0002.94,0000.59,0000.37
2022-02-19 22:38:00,,0821.0,4.99,0.00,25.3,24.2,00.0,34.4,27.0,07.2,0000.0,0003.42,0000.60,0000.38
2022-02-19 22:39:00,,0821.0,5.01,0.00,25.2,24.2,00.0,34.4,27.0,07.4,0000.0,0004.05,0000.62,0000.38
2022-02-19 22:40:00,,0821.0,5.01,0.00,25.2,24.2,00.0,34.3,27.0,07.5,0000.0,0003.19,0000.62,0000.38
2022-02-19 22:41:00,,0821.0,5.00,0.00,25.2,24.2,00.0,34.3,27.0,07.1,0000.0,0003.02,0000.62,0000.37
2022-02-19 22:42:00,,0820.9,5.01,0.00,25.2,24.2,00.0,34.3,26.9,07.3,0000.0,0002.93,0000.59,0000.38
2022-02-19 22:43:00,,0820.9,4.99,0.00,25.2,24.2,00.0,34.3,27.0,07.5,0000.0,0002.76,0000.56,0000.37
2022-02-19 22:44:00,,0820.8,5.00,0.00,25.2,24.2,00.0,34.3,27.0,07.5,0000.0,0002.65,0000.53,0000.37
2022-02-19 22:45:00,,0820.8,5.02,0.00,25.2,24.2,00.0,34.3,27.0,07.5,0000.0,0002.70,0000.53,0000.37
2022-02-19 22:46:00,,0820.7,5.00,0.00,25.2,24.2,00.0,34.2,26.9,07.5,0000.0,0002.50,0000.52,0000.36
2022-02-19 22:47:00,,0820.7,4.99,0.00,25.1,24.2,00.0,34.2,26.9,07.6,0000.0,0002.38,0000.52,0000.36
2022-02-19 22:48:00,,0820.7,4.99,0.00,25.1,24.1,00.0,34.2,26.9,07.4,0000.0,0002.45,0000.51,0000.36
2022-02-19 22:49:00,,0820.7,5.02,0.00,25.1,24.1,00.0,34.2,26.9,07.4,0000.0,0001.79,0000.52,0000.36
2022-02-19 22:50:00,,0820.7,4.99,0.00,25.1,24.1,00.0,34.2,26.9,07.5,0000.0,0001.27,0000.52,0000.35
2022-02-19 22:51:00,,0820.6,4.99,0.00,25.1,24.1,00.0,34.2,26.9,07.5,0000.0,0001.14,0000.51,0000.35
2022-02-19 22:52:00,,0820.5,5.01,0.00,25.1,24.1,00.0,34.2,26.9,07.5,0000.0,0001.13,0000.50,0000.35
2022-02-19 22:53:00,,0820.4,5.00,0.00,25.1,24.0,00.0,34.1,26.9,07.2,0000.0,0001.17,0000.51,0000.35
2022-02-19 22:54:00,,0820.7,4.99,0.00,25.1,24.0,00.0,34.1,26.8,07.2,0000.0,0001.23,0000.53,0000.35
2022-02-19 22:55:00,,0820.7,5.01,0.00,25.1,24.0,00.0,34.1,26.8,07.3,0000.0,0001.29,0000.55,0000.35
2022-02-19 22:56:00,,0820.6,5.02,0.00,25.1,24.0,00.0,34.1,26.8,07.7,0000.0,0001.27,0000.55,0000.36
2022-02-19 22:57:00,,0820.5,5.00,0.00,25.1,24.0,00.0,34.1,26.8,07.5,0000.0,0001.28,0000.57,0000.37
2022-02-19 22:58:00,,0820.5,5.00,0.00,25.1,24.0,00.0,34.1,26.8,07.5,0000.0,0001.28,0000.57,0000.37
2022-02-19 22:59:00,,0820.4,4.99,0.00,25.0,24.0,00.0,34.1,26.8,07.3,0000.0,0001.10,0000.55,0000.37
